Time_in_sec,Mx,My,Mz
1314272181.55755568,-0.28610814,0.47763070,-0.81946576
1314272181.60188389,-0.28382504,0.48049796,-0.81935686
1314272181.65242791,-0.28562075,0.47849002,-0.81798536
1314272181.69372654,-0.28640965,0.47937396,-0.81750631
1314272181.75244355,-0.28505301,0.47820336,-0.81529808
1314272181.80159569,-0.28632614,0.48086551,-0.81592095
1314272181.85195255,-0.28527266,0.47769409,-0.81451100
1314272181.90164208,-0.28549251,0.48034987,-0.81560433
1314272181.94163823,-0.28550592,0.47912058,-0.81824875
1314272182.00446725,-0.28735536,0.47770229,-0.81317079
1314272182.05345821,-0.28583002,0.47858253,-0.81468201
1314272182.10157895,-0.28537285,0.47934636,-0.81598800
1314272182.15348983,-0.28583199,0.47883415,-0.81468397
1314272182.20061111,-0.28514490,0.47869903,-0.81451118
1314272182.25356722,-0.28483391,0.47868833,-0.81383020
1314272182.30164623,-0.28569946,0.47720006,-0.81492960
1314272182.35346079,-0.28644469,0.47757319,-0.81378108
1314272182.40494299,-0.28507677,0.47921288,-0.81557220
1314272182.45248246,-0.28361717,0.47917756,-0.81376445
1314272182.50049019,-0.28701505,0.47708222,-0.81434053
1314272182.55277872,-0.28485087,0.47781220,-0.81422257
1314272182.60154462,-0.28485388,0.47718465,-0.81435072
1314272182.65509868,-0.28486675,0.47781524,-0.81448877
1314272182.69249153,-0.28480050,0.47958571,-0.81542659
1314272182.75257373,-0.28606057,0.47845224,-0.81403100
1314272182.80070281,-0.28529117,0.47691950,-0.81264937
1314272182.85250592,-0.28652379,0.47643331,-0.81298131
1314272182.90205932,-0.28410926,0.48196226,-0.81487423
1314272182.95244908,-0.28635463,0.47933906,-0.81431961
1314272183.00161028,-0.28544459,0.47818071,-0.81280011
1314272183.05252695,-0.28582674,0.47705004,-0.81254828
1314272183.10161042,-0.28436550,0.47791815,-0.81286931
1314272183.15647507,-0.28614166,0.47756398,-0.81323320
1314272183.20230865,-0.28552291,0.48008004,-0.81387979
1314272183.25250077,-0.28457019,0.47853667,-0.81169182
1314272183.30216289,-0.28396118,0.47814083,-0.81059307
1314272183.35248375,-0.28584510,0.47828540,-0.81043625
1314272183.40452528,-0.28568807,0.47767600,-0.81241238
1314272183.45357752,-0.28596631,0.47755483,-0.81255996
1314272183.50473452,-0.28584754,0.47768211,-0.81281942
1314272183.55259252,-0.28464833,0.47727096,-0.81089109
1314272183.60214043,-0.28462565,0.48055726,-0.81237316
1314272183.65249443,-0.28600866,0.47678480,-0.81109762
1314272183.70213032,-0.28375641,0.47852731,-0.81164539
1314272183.75258136,-0.28518781,0.47790474,-0.81079388
1314272183.80503368,-0.28605932,0.47616637,-0.81202441
1314272183.85680771,-0.28542534,0.47765014,-0.81027496
1314272183.90460110,-0.28423432,0.47940055,-0.81048536
1314272183.95268250,-0.28621536,0.47664994,-0.81004733
1314272184.00482154,-0.28380400,0.47954142,-0.81231880
1314272184.05258346,-0.28661630,0.47690472,-0.80993944
1314272184.10201144,-0.28509054,0.47763488,-0.80919468
1314272184.15360713,-0.28508782,0.47941750,-0.81119728
1314272184.20160747,-0.28506604,0.47865957,-0.81092519
1314272184.25368166,-0.28574091,0.47713485,-0.80883014
1314272184.30162263,-0.28569949,0.47903568,-0.81016827
1314272184.35260820,-0.28595191,0.47865832,-0.80991453
1314272184.39247322,-0.28445610,0.47713298,-0.80995065
1314272184.45260191,-0.28533125,0.47991779,-0.81068432
1314272184.50446868,-0.28491551,0.47878081,-0.81065220
1314272184.55411935,-0.28472826,0.47826687,-0.80984193
1314272184.60458302,-0.28531644,0.47903559,-0.81054431
1314272184.65256262,-0.28613225,0.47829154,-0.81071794
1314272184.70147896,-0.28386322,0.47890022,-0.81112367
1314272184.75263524,-0.28652981,0.47801882,-0.80835110
1314272184.80449510,-0.28403652,0.47966275,-0.81166977
1314272184.85277700,-0.28763181,0.47715512,-0.80880541
1314272184.90171909,-0.28440240,0.47837895,-0.80889571
1314272184.95282769,-0.28692016,0.47904968,-0.81023794
1314272185.00162578,-0.28422359,0.47701165,-0.81059968
1314272185.05203080,-0.28464392,0.47762263,-0.80850595
1314272185.10512161,-0.28360850,0.47787091,-0.80924457
1314272185.15261459,-0.28513944,0.47992986,-0.81199986
1314272185.20553684,-0.28556576,0.48029074,-0.81003726
1314272185.25260472,-0.28749511,0.47803274,-0.80867153
1314272185.30159569,-0.28503236,0.47739691,-0.81051600
1314272185.35248756,-0.28546065,0.47800940,-0.80855536
1314272185.40058231,-0.28570348,0.47853395,-0.81029737
1314272185.45594764,-0.28499848,0.47914916,-0.80973119
1314272185.50150180,-0.28468397,0.47878528,-0.81130224
1314272185.55259252,-0.28543133,0.47740003,-0.81040609
1314272185.60046816,-0.28472158,0.48055121,-0.81171536
1314272185.65332699,-0.28426906,0.47978407,-0.81102073
1314272185.70145965,-0.28519079,0.47828218,-0.81079686
1314272185.75260973,-0.28514999,0.47915375,-0.81000513
1314272185.80101299,-0.28592265,0.47704399,-0.81189048
1314272185.85036206,-0.28688166,0.47615296,-0.80994898
1314272185.90112114,-0.28485727,0.47954780,-0.81184834
1314272185.95707488,-0.28378016,0.47953686,-0.81191951
1314272186.00044513,-0.28361678,0.47902748,-0.81150848
1314272186.05246091,-0.28595886,0.47853401,-0.81004667
1314272186.10443926,-0.28535154,0.47956917,-0.81333566
1314272186.15347457,-0.28551674,0.47716513,-0.81186825
1314272186.20145583,-0.28500396,0.47791833,-0.81224251
1314272186.25412774,-0.28530160,0.47815338,-0.81040430
1314272186.30164981,-0.28702047,0.47869200,-0.81196529
1314272186.35260534,-0.28648892,0.47805974,-0.81219560
1314272186.40174818,-0.28580219,0.47907969,-0.81415355
1314272186.45349193,-0.28426164,0.47792268,-0.81339395
1314272186.50444865,-0.28373849,0.47927764,-0.81125200
1314272186.55346751,-0.28658387,0.47792789,-0.81153679
1314272186.60448098,-0.28437233,0.47980383,-0.81275105
1314272186.65518355,-0.28642234,0.47867513,-0.81100261
1314272186.70499706,-0.28496036,0.47640252,-0.81169826
1314272186.75246716,-0.28702366,0.47605449,-0.81234384
1314272186.80450439,-0.28640202,0.47718814,-0.81311262
1314272186.85246158,-0.28786775,0.47679898,-0.81054050
1314272186.90204644,-0.28514391,0.47857323,-0.81451017
1314272186.95246530,-0.28508398,0.47790927,-0.81131852
1314272187.00204778,-0.28547597,0.47803670,-0.81107658
1314272187.05648661,-0.28478676,0.47965994,-0.81065142
1314272187.10564947,-0.28613847,0.48020148,-0.81285465
1314272187.15751839,-0.28499299,0.47854435,-0.81198126
1314272187.20475078,-0.28522676,0.48095155,-0.81333882
1314272187.25361085,-0.28529504,0.47842774,-0.81252813
1314272187.30189371,-0.28435159,0.47816673,-0.81260508
1314272187.35349417,-0.28639966,0.47678643,-0.81085467
1314272187.40571523,-0.28504655,0.47930837,-0.81278580
1314272187.45453167,-0.28456718,0.47916421,-0.81156367
1314272187.50500417,-0.28502974,0.47817451,-0.81264383
1314272187.55347967,-0.28618893,0.47742301,-0.81177586
1314272187.60176611,-0.28499445,0.47781527,-0.81436342
1314272187.65261102,-0.28624853,0.47693193,-0.81283671
1314272187.70176435,-0.28408343,0.47653109,-0.81284297
1314272187.75247288,-0.28591070,0.47754419,-0.81162822
1314272187.80562234,-0.28555632,0.47918269,-0.81228340
1314272187.85648370,-0.28493154,0.47677386,-0.81116879
1314272187.90445662,-0.28390682,0.48041606,-0.81166792
1314272187.94152403,-0.28532583,0.47830799,-0.81305957
1314272188.00467372,-0.28529963,0.47790173,-0.81040233
1314272188.05259013,-0.28408092,0.47813937,-0.81033462
1314272188.10162807,-0.28555027,0.48043779,-0.81202704
1314272188.15349269,-0.28489095,0.48081046,-0.81225753
1314272188.20129514,-0.28291780,0.47838762,-0.81119859
1314272188.25354314,-0.28544524,0.47715145,-0.81067032
1314272188.30138183,-0.28519019,0.47830644,-0.81305182
1314272188.35261488,-0.28527719,0.47817308,-0.81225997
1314272188.40046954,-0.28487626,0.47791830,-0.81236786
1314272188.45249677,-0.28518233,0.47729996,-0.81304395
1314272188.50050259,-0.28611284,0.47793534,-0.81270379
1314272188.55330968,-0.28616017,0.47678939,-0.81137156
1314272188.60056639,-0.28539044,0.47744098,-0.81425059
1314272188.65667725,-0.28566825,0.47716972,-0.81214219
1314272188.70145893,-0.28405747,0.47828490,-0.81219131
1314272188.75251317,-0.28588995,0.47590712,-0.81148231
1314272188.80045938,-0.28594878,0.47845525,-0.81442255
1314272188.85351300,-0.28636622,0.47768378,-0.81245106
1314272188.90182900,-0.28477994,0.47777426,-0.81076968
1314272188.95246696,-0.28667322,0.47819623,-0.81300288
1314272189.00048804,-0.28623664,0.47642714,-0.81269962
1314272189.05456710,-0.28643346,0.47603914,-0.81151426
1314272189.10238838,-0.28449550,0.47932488,-0.81487674
1314272189.15251708,-0.28408065,0.47931868,-0.81472039
1314272189.20208287,-0.28365460,0.47777849,-0.81229722
1314272189.25360155,-0.28637818,0.47718358,-0.81271333
1314272189.30221128,-0.28675067,0.47795981,-0.81433195
1314272189.35248184,-0.28562847,0.47816712,-0.81135148
1314272189.40161395,-0.28484040,0.47941893,-0.81158113
1314272189.45651865,-0.28538400,0.47854599,-0.81173825
1314272189.50446963,-0.28477436,0.47817445,-0.81289452
1314272189.55747461,-0.28439990,0.47714660,-0.81127387
1314272189.60448170,-0.28587756,0.48060161,-0.81523025
1314272189.65258861,-0.28546441,0.47868699,-0.81307030
1314272189.70205641,-0.28417820,0.47840920,-0.81193382
1314272189.75360084,-0.28582567,0.47792920,-0.81242210
1314272189.80585003,-0.28581977,0.47717431,-0.81241614
1314272189.85246849,-0.28615117,0.47766703,-0.81111228
1314272189.90173650,-0.28587714,0.48045152,-0.81297427
1314272189.94161367,-0.28396845,0.47917160,-0.81285596
1314272190.00446320,-0.28571743,0.47828537,-0.81056160
1314272190.05247498,-0.28584298,0.48004374,-0.81018388
1314272190.10192800,-0.28420705,0.47803786,-0.81246322
1314272190.15349364,-0.28488871,0.47839880,-0.81024992
1314272190.20160794,-0.28589875,0.47804442,-0.81136596
1314272190.25397706,-0.28748560,0.47792968,-0.81079239
1314272190.30458927,-0.28454465,0.48044053,-0.81329614
1314272190.35249376,-0.28674003,0.47640151,-0.80981010
1314272190.40446258,-0.28677741,0.47934678,-0.81460905
1314272190.45350575,-0.28562206,0.47643152,-0.81372577
1314272190.50446272,-0.28581282,0.47729862,-0.81228405
1314272190.55351210,-0.28711051,0.47793108,-0.81130159
1314272190.60161734,-0.28401777,0.47827730,-0.81152576
1314272190.65663671,-0.28574035,0.47715911,-0.81108510
1314272190.70160604,-0.28559670,0.47816104,-0.81081909
1314272190.75259614,-0.28674445,0.47604987,-0.81219524
1314272190.80448580,-0.28431645,0.47763315,-0.80981374
1314272190.85353446,-0.28549463,0.47525215,-0.80946535
1314272190.90163183,-0.28479570,0.47978726,-0.81078547
1314272190.95352244,-0.28461394,0.47804251,-0.81248647
1314272191.00146294,-0.28480378,0.47777882,-0.81116897
1314272191.05518508,-0.28571159,0.47652552,-0.81068087
1314272191.10162020,-0.28390792,0.47853193,-0.81191933
1314272191.15267110,-0.28559774,0.47728187,-0.81094527
1314272191.20446587,-0.28368926,0.47916698,-0.81270736
1314272191.25359583,-0.28569365,0.47727582,-0.81028748
1314272191.30152011,-0.28591856,0.47855070,-0.81163615
1314272191.35359979,-0.28732130,0.47628951,-0.81050563
1314272191.40159035,-0.28611374,0.47906613,-0.81257957
1314272191.45531058,-0.28601855,0.47703794,-0.81123275
1314272191.50148916,-0.28574035,0.47715911,-0.81108510
1314272191.55755830,-0.28637081,0.47715780,-0.81032521
1314272191.60048795,-0.28527015,0.47930235,-0.81200266
1314272191.65347719,-0.28576022,0.47666043,-0.81148046
1314272191.70238471,-0.28584149,0.47893721,-0.81256306
1314272191.75410748,-0.28527972,0.47840044,-0.81000698
1314272191.80145955,-0.28420064,0.47813788,-0.81007618
1314272191.85676003,-0.28592223,0.47689390,-0.80963451
1314272191.90046453,-0.28571585,0.47818381,-0.81281561
1314272191.94147873,-0.28437594,0.47915202,-0.81062418
1314272192.00055480,-0.28694400,0.47905424,-0.81063724
1314272192.05252218,-0.28609148,0.47916314,-0.80992627
1314272192.10235190,-0.28487915,0.47930071,-0.81224567
1314272192.15249753,-0.28556773,0.48054236,-0.81003928
1314272192.20183730,-0.28649089,0.47831139,-0.81219757
1314272192.25473809,-0.28435513,0.47851992,-0.81035304
1314272192.30566859,-0.28478092,0.47790006,-0.81077063
1314272192.35257387,-0.28491959,0.47727409,-0.81090653
1314272192.40446377,-0.28445241,0.47878978,-0.81195229
1314272192.45351100,-0.28358704,0.47826806,-0.81110322
1314272192.50445867,-0.28365657,0.47803012,-0.81229919
1314272192.55360961,-0.28567129,0.47654217,-0.81227034
1314272192.60120463,-0.28412455,0.47865021,-0.81100410
1314272192.65263557,-0.28418911,0.47878817,-0.81206989
1314272192.70541906,-0.28492287,0.47880659,-0.81304032
1314272192.76155400,-0.28588793,0.47666046,-0.81135511
1314272192.80444527,-0.28468141,0.47855791,-0.81355524
1314272192.85251856,-0.28455627,0.47878525,-0.81142759
1314272192.90148997,-0.28316656,0.47966704,-0.81294656
1314272192.95252013,-0.28314674,0.47916076,-0.81267643
1314272193.00147676,-0.28742048,0.47781599,-0.81198156
1314272193.05467224,-0.28669468,0.47779909,-0.81114429
1314272193.10600901,-0.28447521,0.47967350,-0.81222540
1314272193.15251040,-0.28600195,0.47906914,-0.81297112
1314272193.20447183,-0.28412890,0.47930354,-0.81326401
1314272193.25324345,-0.28585416,0.47640276,-0.81082070
1314272193.30194283,-0.28557825,0.47793064,-0.81280589
1314272193.35253382,-0.28390506,0.47714949,-0.81204152
1314272193.40569878,-0.28486627,0.47867015,-0.81210762
1314272193.45660305,-0.28356361,0.47841358,-0.81295991
1314272193.50095606,-0.28500223,0.47982675,-0.81424612
1314272193.55347824,-0.28588504,0.47527805,-0.81147736
1314272193.60486078,-0.28500322,0.47995257,-0.81424713
1314272193.65256476,-0.28465849,0.47968417,-0.81303173
1314272193.70181441,-0.28347057,0.47980204,-0.81349546
1314272193.75262189,-0.28586844,0.47730926,-0.81321573
1314272193.80159926,-0.28763598,0.47798282,-0.81557631
1314272193.85417485,-0.28460002,0.47829109,-0.81222224
1314272193.90459061,-0.28370914,0.47866827,-0.81310272
1314272193.94450331,-0.28428444,0.47880641,-0.81366712
1314272194.00548816,-0.28367633,0.47954139,-0.81244415
1314272194.05250835,-0.28762427,0.47730368,-0.81092829
1314272194.10167503,-0.28658313,0.47996214,-0.81354141
1314272194.15259242,-0.28484482,0.47906730,-0.81396627
1314272194.20151663,-0.28334683,0.48030525,-0.81362480
1314272194.25654674,-0.28571093,0.47755477,-0.81281066
1314272194.30160379,-0.28423095,0.47703743,-0.81298774
1314272194.35249877,-0.28414953,0.47677061,-0.81165475
1314272194.40152836,-0.28560537,0.47946769,-0.81533897
1314272194.45263433,-0.28507832,0.47931442,-0.81331819
1314272194.50445127,-0.28505352,0.47918406,-0.81291789
1314272194.55319476,-0.28585154,0.47718039,-0.81294852
1314272194.60153437,-0.28476289,0.47781977,-0.81501341
1314272194.65199208,-0.28600609,0.47655743,-0.81335068
1314272194.69247556,-0.28580618,0.47857797,-0.81428272
1314272194.75757051,-0.28554288,0.47857636,-0.81440032
1314272194.80047584,-0.28401393,0.48194405,-0.81327701
1314272194.85349798,-0.28532943,0.47765619,-0.81093276
1314272194.90240002,-0.28542608,0.47895530,-0.81466174
1314272194.94240808,-0.28681770,0.47933009,-0.81301957
1314272195.00119591,-0.28481403,0.47918701,-0.81343484
1314272195.05368137,-0.28637862,0.47916928,-0.81020796
1314272195.10161090,-0.28370914,0.47866827,-0.81310272
1314272195.16154766,-0.28540388,0.47804731,-0.81213361
1314272195.20454741,-0.28484967,0.48070133,-0.81384599
1314272195.25351691,-0.28439787,0.47789997,-0.81114674
1314272195.30225897,-0.28389007,0.47827724,-0.81165111
1314272195.35318303,-0.28587130,0.47869167,-0.81309354
1314272195.40514159,-0.28668672,0.47779757,-0.81101114
1314272195.45646048,-0.28595436,0.47805503,-0.81229770
1314272195.50153708,-0.28485045,0.47766212,-0.81196660
1314272195.55648851,-0.28610259,0.47652712,-0.81043792
1314272195.59250784,-0.28476349,0.47779548,-0.81275845
1314272195.65354204,-0.28519577,0.47790626,-0.81092697
1314272195.70210385,-0.28423327,0.48027974,-0.81035918
1314272195.75359988,-0.28608853,0.47878569,-0.80992329
1314272195.80151486,-0.28454596,0.47838202,-0.80903655
1314272195.85645175,-0.28657007,0.47616652,-0.81152296
1314272195.90159559,-0.28550366,0.47954950,-0.81135464
1314272195.94160914,-0.28493547,0.47727713,-0.81117278
1314272196.00105214,-0.28582224,0.47840667,-0.81003791
1314272196.05361962,-0.28576770,0.47751686,-0.80923241
1314272196.10198402,-0.28418067,0.47964156,-0.80955559
1314272196.15246034,-0.28547013,0.47627684,-0.81119579
1314272196.20459080,-0.28487283,0.47839576,-0.80998373
1314272196.25517869,-0.28375909,0.47674471,-0.80964273
1314272196.30564737,-0.28587991,0.47766393,-0.81109685
1314272196.36154532,-0.28711548,0.47755516,-0.81143171
1314272196.40446234,-0.28554845,0.47817618,-0.81227547
1314272196.44159579,-0.28617311,0.47641501,-0.81163484
1314272196.50449252,-0.28319997,0.47876969,-0.81135017
1314272196.55246568,-0.28489232,0.47774699,-0.80812311
1314272196.60464716,-0.28356412,0.47939429,-0.81057972
1314272196.65384746,-0.28482616,0.47851247,-0.80918610
1314272196.69345355,-0.28372923,0.47799525,-0.80898714
1314272196.75245142,-0.28632104,0.47890702,-0.80927426
1314272196.80448627,-0.28294340,0.48165873,-0.81122434
1314272196.85345531,-0.28546163,0.47813520,-0.80855638
1314272196.90167928,-0.28372908,0.48000520,-0.80873674
1314272196.94152331,-0.28467464,0.47850788,-0.80891216
1314272197.00146413,-0.28398165,0.47761789,-0.80873346
1314272197.05245852,-0.28474835,0.47759384,-0.80572629
1314272197.10146523,-0.28399691,0.48048577,-0.80636811
1314272197.15246725,-0.28334659,0.47998083,-0.80685782
1314272197.20446706,-0.28540963,0.47747275,-0.80549783
1314272197.25244689,-0.28493115,0.47845939,-0.80415148
1314272197.30056858,-0.28517205,0.47873235,-0.80589151
1314272197.35248446,-0.28449601,0.47696620,-0.80610520
1314272197.40160894,-0.28470764,0.47746041,-0.80505979
1314272197.44157124,-0.28584436,0.47698027,-0.80604947
1314272197.50089383,-0.28462911,0.47857603,-0.80360454
1314272197.55246472,-0.28462806,0.47945520,-0.80347842
1314272197.60046101,-0.28349650,0.48272449,-0.80449921
1314272197.65246987,-0.28529334,0.47883239,-0.80337906
1314272197.69354963,-0.28600237,0.47771546,-0.80407441
1314272197.75246143,-0.28629431,0.48036063,-0.80411065
1314272197.80061197,-0.28476360,0.48046175,-0.80336094
1314272197.85044026,-0.28593186,0.47782761,-0.80287743
1314272197.90095735,-0.28380835,0.47869098,-0.80342603
1314272197.94154525,-0.28468668,0.47883829,-0.80453825
1314272198.00062060,-0.28485960,0.47945070,-0.80282837
1314272198.05360842,-0.28669593,0.47858119,-0.80199814
1314272198.10227227,-0.28455395,0.48021916,-0.80440831
1314272198.15360022,-0.28569049,0.47657394,-0.80351758
1314272198.20150375,-0.28464794,0.47895649,-0.80387372
1314272198.25646973,-0.28591406,0.47656795,-0.80273449
1314272198.30449533,-0.28232330,0.47955456,-0.80334777
1314272198.35259318,-0.28527260,0.47719532,-0.80323309
1314272198.40173221,-0.28466228,0.47885799,-0.80639392
1314272198.44149780,-0.28428584,0.47757852,-0.80477136
1314272198.50213027,-0.28551596,0.47870058,-0.80259496
1314272198.55246234,-0.28567457,0.47657090,-0.80325139
1314272198.60459375,-0.28437275,0.47845015,-0.80385429
1314272198.65416646,-0.28372940,0.47782090,-0.80447614
1314272198.70448470,-0.28502861,0.47671929,-0.80600107
1314272198.75257802,-0.28502861,0.47671929,-0.80600107
1314272198.80511475,-0.28540626,0.47694525,-0.80323887
1314272198.85258961,-0.28505203,0.47657377,-0.80414438
1314272198.90205073,-0.28621188,0.47813240,-0.80753797
1314272198.94151664,-0.28594127,0.47710001,-0.80539274
1314272199.00161648,-0.28336149,0.47985804,-0.80712306
1314272199.05650806,-0.28654793,0.47709414,-0.80423349
1314272199.10475850,-0.28510791,0.47874445,-0.80708170
1314272199.15748954,-0.28542387,0.47837925,-0.80789280
1314272199.20447588,-0.28395012,0.47977185,-0.81020665
1314272199.25361371,-0.28559601,0.47585091,-0.80655754
1314272199.30185890,-0.28461614,0.47711480,-0.80810267
1314272199.35360861,-0.28466538,0.47722548,-0.80664730
1314272199.40150952,-0.28552216,0.47877491,-0.80949301
1314272199.45620751,-0.28530362,0.47740000,-0.81053144
1314272199.50568509,-0.28467169,0.47813043,-0.80890918
